Austin, MN

9:23 AM CDT on May 22, 2018 (GMT -0500)
Austin Municipal

Weather History for KAUM - October, 2011

Change the Weather History Date:

Wednesday, October 19, 2011

  Actual Average Record
Temperature  
Mean Temperature 40 °F -  
Max Temperature 44 °F 56 °F 82 °F (2003)
Min Temperature 37 °F 37 °F 28 °F (1996)
Degree Days  
Heating Degree Days 24    
Moisture  
Dew Point 34 °F    
Average Humidity 77    
Maximum Humidity 93    
Minimum Humidity 61    
Precipitation  
Precipitation 0.00 in - - ()
Sea Level Pressure  
Sea Level Pressure 30.01 in    
Wind  
Wind Speed 11 mph (North)    
Max Wind Speed 20 mph    
Max Gust Speed 29 mph    
Visibility 10 miles    
Events      
Averages and records for this station are not official NWS values.
T = Trace of Precipitation, MM = Missing Value Source: NWS Daily Summary

Daily Weather History Graph

Daily Weather History Graph

Search for Another Location

Airport or City:

Astronomy

Oct. 19, 2011 Rise Set
Actual Time 7:30 AM CDT 6:22 PM CDT
Civil Twilight 7:01 AM CDT 6:51 PM CDT
Nautical Twilight 6:28 AM CDT 7:24 PM CDT
Astronomical Twilight 5:54 AM CDT 7:57 PM CDT
Moon No Moon Rise 2:06 PM CDT (10/19)
Length of Visible Light 11h 49m
Length of Day
10h 51m
Waning Gibbous, 54% of the Moon is Illuminated
Oct 19
Waning Gibbous
Oct 19
Last Quarter
Oct 26
New
Nov 2
First Quarter
Nov 10
Full

Hourly Weather History & Observations

Time (CDT) Temp. Windchill Dew Point Humidity Pressure Visibility Wind Dir Wind Speed Gust Speed Precip Events Conditions
12:36 AM 39.2 °F 33.6 °F 33.8 °F 81% 29.99 in 10.0 mi North 8.1 mph - N/A   Overcast
12:55 AM 39.2 °F 32.0 °F 33.8 °F 81% 29.99 in 10.0 mi North 11.5 mph - N/A   Overcast
1:16 AM 39.2 °F 33.0 °F 33.8 °F 81% 29.99 in 10.0 mi North 9.2 mph - N/A   Overcast
1:36 AM 39.2 °F 33.0 °F 33.8 °F 81% 29.99 in 10.0 mi North 9.2 mph - N/A   Overcast
2:16 AM 39.2 °F 32.0 °F 33.8 °F 81% 29.99 in 10.0 mi North 11.5 mph 16.1 mph N/A   Overcast
2:36 AM 39.2 °F 33.0 °F 33.8 °F 81% 29.99 in 10.0 mi North 9.2 mph 17.3 mph N/A   Light Drizzle
3:15 AM 37.4 °F 30.3 °F 35.6 °F 93% 29.99 in 10.0 mi North 10.4 mph - N/A   Light Drizzle
3:36 AM 37.4 °F 30.8 °F 35.6 °F 93% 29.99 in 10.0 mi North 9.2 mph - N/A   Light Drizzle
3:55 AM 37.4 °F 30.3 °F 35.6 °F 93% 29.98 in 10.0 mi North 10.4 mph 16.1 mph N/A   Light Drizzle
4:35 AM 37.4 °F 31.4 °F 35.6 °F 93% 29.99 in 10.0 mi North 8.1 mph 17.3 mph N/A   Overcast
4:55 AM 37.4 °F 30.8 °F 35.6 °F 93% 29.99 in 10.0 mi North 9.2 mph - N/A   Overcast
5:16 AM 37.4 °F 32.1 °F 35.6 °F 93% 30.00 in 10.0 mi North 6.9 mph - N/A   Overcast
5:35 AM 37.4 °F 31.4 °F 35.6 °F 93% 30.00 in 10.0 mi North 8.1 mph - N/A   Overcast
5:56 AM 37.4 °F 29.8 °F 35.6 °F 93% 30.00 in 10.0 mi NNE 11.5 mph - N/A   Overcast
6:15 AM 37.4 °F 30.8 °F 35.6 °F 93% 30.01 in 10.0 mi North 9.2 mph - N/A   Overcast
6:36 AM 37.4 °F 30.8 °F 35.6 °F 93% 30.01 in 10.0 mi North 9.2 mph - N/A   Overcast
6:56 AM 37.4 °F 31.4 °F 35.6 °F 93% 30.01 in 10.0 mi North 8.1 mph - N/A   Overcast
7:36 AM 37.4 °F 30.3 °F 35.6 °F 93% 30.02 in 10.0 mi North 10.4 mph - N/A   Overcast
7:56 AM 37.4 °F 30.3 °F 35.6 °F 93% 30.02 in 10.0 mi North 10.4 mph - N/A   Overcast
8:15 AM 37.4 °F 30.8 °F 35.6 °F 93% 30.03 in 10.0 mi North 9.2 mph 16.1 mph N/A   Overcast
8:36 AM 37.4 °F 30.8 °F 35.6 °F 93% 30.03 in 10.0 mi North 9.2 mph - N/A   Overcast
8:56 AM 37.4 °F 29.3 °F 35.6 °F 93% 30.03 in 10.0 mi North 12.7 mph 18.4 mph N/A   Overcast
9:15 AM 39.2 °F 32.0 °F 35.6 °F 87% 30.03 in 10.0 mi North 11.5 mph 18.4 mph N/A   Overcast
9:36 AM 39.2 °F 32.0 °F 35.6 °F 87% 30.04 in 10.0 mi North 11.5 mph 19.6 mph N/A   Overcast
9:55 AM 39.2 °F 32.5 °F 35.6 °F 87% 30.04 in 10.0 mi North 10.4 mph 21.9 mph N/A   Overcast
10:16 AM 39.2 °F 31.6 °F 35.6 °F 87% 30.04 in 10.0 mi North 12.7 mph 19.6 mph N/A   Overcast
10:36 AM 39.2 °F 31.6 °F 35.6 °F 87% 30.04 in 10.0 mi North 12.7 mph 18.4 mph N/A   Overcast
10:55 AM 41.0 °F 34.3 °F 35.6 °F 81% 30.05 in 10.0 mi North 11.5 mph 16.1 mph N/A   Overcast
11:16 AM 41.0 °F 34.3 °F 35.6 °F 81% 30.04 in 10.0 mi North 11.5 mph 20.7 mph N/A   Overcast
11:56 AM 42.8 °F 37.0 °F 35.6 °F 76% 30.04 in 10.0 mi North 10.4 mph - N/A   Overcast
12:16 PM 42.8 °F 36.2 °F 35.6 °F 76% 30.04 in 10.0 mi North 12.7 mph 21.9 mph N/A   Overcast
12:36 PM 44.6 °F 38.8 °F 35.6 °F 71% 30.03 in 10.0 mi North 11.5 mph - N/A   Overcast
12:55 PM 44.6 °F 37.4 °F 33.8 °F 66% 30.02 in 10.0 mi North 16.1 mph 24.2 mph N/A   Mostly Cloudy
1:16 PM 44.6 °F 38.4 °F 33.8 °F 66% 30.01 in 10.0 mi North 12.7 mph 21.9 mph N/A   Overcast
1:36 PM 44.6 °F 38.1 °F 33.8 °F 66% 30.01 in 10.0 mi North 13.8 mph 19.6 mph N/A   Overcast
1:55 PM 44.6 °F 38.1 °F 33.8 °F 66% 30.00 in 10.0 mi North 13.8 mph 27.6 mph N/A   Overcast
2:16 PM 44.6 °F 37.2 °F 33.8 °F 66% 30.00 in 10.0 mi North 17.3 mph 27.6 mph N/A   Overcast
2:55 PM 44.6 °F 37.2 °F 33.8 °F 66% 29.99 in 10.0 mi North 17.3 mph 21.9 mph N/A   Overcast
3:16 PM 44.6 °F 36.6 °F 33.8 °F 66% 29.99 in 10.0 mi NNW 19.6 mph 28.8 mph N/A   Overcast
3:36 PM 44.6 °F 36.6 °F 32.0 °F 61% 29.99 in 10.0 mi NNW 19.6 mph 27.6 mph N/A   Overcast
3:55 PM 44.6 °F 37.8 °F 32.0 °F 61% 29.99 in 10.0 mi North 15.0 mph 26.5 mph N/A   Overcast
4:16 PM 44.6 °F 36.6 °F 32.0 °F 61% 29.99 in 10.0 mi NNW 19.6 mph 24.2 mph N/A   Overcast
4:35 PM 44.6 °F 36.9 °F 33.8 °F 66% 29.99 in 10.0 mi NNW 18.4 mph 26.5 mph N/A   Overcast
4:55 PM 44.6 °F 38.4 °F 33.8 °F 66% 29.99 in 10.0 mi North 12.7 mph 21.9 mph N/A   Overcast
5:16 PM 42.8 °F 35.1 °F 32.0 °F 66% 30.00 in 10.0 mi NNW 16.1 mph 23.0 mph N/A   Overcast
5:36 PM 42.8 °F 35.4 °F 32.0 °F 66% 29.99 in 10.0 mi NNW 15.0 mph 18.4 mph N/A   Overcast
5:55 PM 42.8 °F 36.2 °F 32.0 °F 66% 29.99 in 10.0 mi North 12.7 mph 25.3 mph N/A   Overcast
6:16 PM 42.8 °F 35.4 °F 32.0 °F 66% 30.00 in 10.0 mi North 15.0 mph 21.9 mph N/A   Overcast
6:35 PM 42.8 °F 36.6 °F 32.0 °F 66% 30.01 in 10.0 mi NNW 11.5 mph - N/A   Overcast
6:55 PM 42.8 °F 35.8 °F 32.0 °F 66% 30.00 in 10.0 mi NNW 13.8 mph 21.9 mph N/A   Overcast
7:16 PM 42.8 °F 36.6 °F 32.0 °F 66% 30.00 in 10.0 mi NNW 11.5 mph 18.4 mph N/A   Overcast
7:56 PM 42.8 °F 36.2 °F 32.0 °F 66% 30.00 in 10.0 mi NNW 12.7 mph 20.7 mph N/A   Overcast
8:16 PM 42.8 °F 37.0 °F 32.0 °F 66% 30.00 in 10.0 mi NNW 10.4 mph 20.7 mph N/A   Overcast
8:35 PM 42.8 °F 37.0 °F 32.0 °F 66% 29.99 in 10.0 mi NNW 10.4 mph - N/A   Overcast
8:56 PM 42.8 °F 36.6 °F 32.0 °F 66% 29.99 in 10.0 mi North 11.5 mph 16.1 mph N/A   Overcast
9:16 PM 42.8 °F 36.6 °F 30.2 °F 61% 29.99 in 10.0 mi North 11.5 mph 18.4 mph N/A   Overcast
9:35 PM 42.8 °F 36.6 °F 32.0 °F 66% 29.99 in 10.0 mi North 11.5 mph 20.7 mph N/A   Overcast
9:56 PM 39.2 °F 33.0 °F 30.2 °F 70% 29.99 in 10.0 mi North 9.2 mph - N/A   Scattered Clouds
10:16 PM 39.2 °F 33.6 °F 30.2 °F 70% 29.98 in 10.0 mi North 8.1 mph - N/A   Clear
10:35 PM 39.2 °F 33.6 °F 30.2 °F 70% 29.98 in 10.0 mi North 8.1 mph 18.4 mph N/A   Clear
10:56 PM 37.4 °F 30.3 °F 30.2 °F 75% 29.98 in 10.0 mi North 10.4 mph 17.3 mph N/A   Clear
11:16 PM 37.4 °F 31.4 °F 30.2 °F 75% 29.97 in 10.0 mi North 8.1 mph - N/A   Clear
11:35 PM 37.4 °F 31.4 °F 30.2 °F 75% 29.96 in 10.0 mi North 8.1 mph - N/A   Clear
11:56 PM 35.6 °F 28.0 °F 30.2 °F 81% 29.96 in 10.0 mi NNW 10.4 mph 17.3 mph N/A   Scattered Clouds